SCP
0 0 0 0 0 0 0 0 0 0 0 0 0 0 0 0 0 0 0 0 0 0 0 0 0 0 0 0 0 0 0 0 0 0 0 0 0 0 0 0 0 0 0
0 0 0 0 0 0 0 0 0 0 0 0 0 0 0 0 0 0 0 0 0 0 0 0 0 0 0 0 0 0 0 0 0 0 0 0 0 0 0 0 0 0 0
0 0 0 0 0 0 0 0 0 0 0 0 0 0 0 0 0 0 0 0 0 0 0 0 0 0 0 0 0 0 0 0 0 0 0 0 0 0 0 0 0 0 0
0 0 0 0 0 0 0 0 0 0 0 0 0 0 0 0 0 0 0 0 0 0 0 0 0 0 0 0 0 0 0 0 0 0 0 0 0 0 0 0 0 0 0
0 0 0 0 0 0 0 0 0 0 0 0 0 0 0 0 0 0 0 0 0 0 0 0 0 0 0 0 0 0 0 0 0 0 0 0 0 0 0 0 0 0 0
0 0 0 0 0 0 0 0 0 0 0 0 0 0 0 0 0 0 0 0 0 0 0 0 0 0 0 0 0 0 0 0 0 0 0 0 0 0 0 0 0 0 0
0 0 0 0 0 0 0 0 0 0 0 0 0 0 0 0 0 0 0 0 0 0 0 0 0 0 0 0 0 0 0 -0 -0 0 0 0 -0 0 0 0 0 0 0
0 0 0 0 0 0 0 0 0 0 0 0 0 0 0 0 0 0 0 0 0 0 0 0 0 0 0 0 0 0 0 0 -0 -0 0 0 -0 -0 0 0 0 0 0
0 0 0 0 0 0 0 0 0 0 0 0 0 0 0 0 0 0 0 0 0 0 0 0 0 0 0 0 0 0 0 0 0 0 0 0 0 0 0 0 0 0 0
0 0 0 0 0 0 0 0 0 0 0 0 0 0 0 0 0 0 0 0 0 0 0 0 0 0 0 0 0 0 0 0 0 0 0 0 0 0 0 0 0 0 0
0 0 0 0 0 0 0 0 0 0 0 0 0 0 0 0 0 0 0 0 0 0 0 0 0 0 0 0 0 0 0 0 0 0 0 0 0 0 0 0 0 0 0
0 0 0 0 0 0 0 0 0 0 0 0 0 0 0 0 0 0 0 0 0 0 0 0 0 0 0 0 0 0 0 0 0 0 0 0 0 0 0 0 0 0 0
0 0 0 0 0 0 0 0 0 0 0 0 0 0 0 0 0 0 0 0 0 0 0 0 0 0 0 0 0 0 0 0 0 0 0 0 0 0 0 0 0 0 0
0 0 0 0 0 0 0 0 0 0 0 0 0 0 0 0 0 0 0 0 0 0 0 0 0 0 0 0 0 0 0 0 0 0 0 0 0 0 0 0 0 0 0
0 0 0 0 0 0 0 0 0 0 0 0 0 0 0 0 0 0 0 0 0 0 0 0 0 0 0 0 0 0 0 0 0 0 0 0 0 0 0 0 0 0 0
0 0 0 0 0 0 0 0 0 0 0 0 0 0 0 0 0 0 0 0 0 0 0 0 0 0 0 0 0 0 0 0 0 0 0 0 0 0 0 0 0 0 0
0 0 0 0 0 0 0 0 0 0 0 0 0 0 0 0 0 0 0 0 0 0 0 0 0 0 0 0 0 0 0 0 0 0 0 0 0 0 0 0 0 0 0
0 0 0 0 0 0 0 0 0 0 0 0 0 0 0 0 0 0 0 0 0 0 0 0 0 0 0 0 0 0 0 0 0 0 0 0 0 0 0 0 0 0 0
0 0 0 0 0 0 0 0 0 0 0 0 0 0 0 0 0 0 0 0 0 0 0 0 0 0 0 0 0 0 0 0 0 0 0 0 0 0 0 0 0 0 0
0 0 0 0 0 0 0 0 0 0 0 0 0 0 0 0 0 0 0 0 0 0 0 0 0 0 0 0 0 0 0 0 0 0 0 0 0 0 0 0 0 0 0
0 0 0 0 0 0 0 0 0 0 0 0 0 0 0 0 0 0 0 0 0 0 0 0 0 0 0 0 0 0 0 0 0 0 0 0 0 0 0 0 0 0 0
0 0 0 0 0 0 0 0 0 0 0 0 0 0 0 0 0 0 0 0 0 0 0 0 0 0 0 0 0 0 0 0 0 0 0 0 0 0 0 0 0 0 0
0 0 0 0 0 0 0 0 0 0 0 0 0 0 0 0 0 0 0 0 0 0 0 0 0 0 0 0 0 0 0 0 0 0 0 0 0 0 0 0 0 0 0
0 0 0 0 0 0 0 0 0 0 0 0 0 0 0 0 0 0 0 0 0 0 0 0 0 0 0 0 0 0 0 0 0 0 0 0 0 0 0 0 0 0 0
0 0 0 0 0 0 0 0 0 0 0 0 0 0 0 0 0 0 0 0 0 0 0 0 0 0 0 0 0 0 0 0 0 0 0 0 0 0 0 0 0 0 0
0 0 0 0 0 0 0 0 0 0 0 0 0 0 0 0 0 0 0 0 0 0 0 0 0 0 0 0 0 0 0 0 0 0 0 0 0 0 0 0 0 0 0
Wind_Speed_500mb
34 30 28 29 28 28 27 26 24 24 20 18 15 13 14 15 16 17 17 18 17 17 16 14 12 12 14 15 14 15 16 17 18 18 19 19 17 15 13 13 11 11 9
36 33 31 33 31 31 31 29 28 28 24 21 17 18 17 17 16 16 17 18 19 16 15 15 12 14 15 14 18 18 18 17 16 16 18 19 17 18 14 12 12 13 10
41 38 37 38 35 33 34 34 33 32 29 24 22 22 20 18 17 16 16 16 15 15 14 13 12 13 14 14 20 17 18 18 17 17 18 20 17 18 17 19 15 14 10
46 43 43 41 36 37 37 37 36 36 34 30 27 24 24 23 21 20 21 20 17 14 12 12 13 12 13 14 16 24 28 27 26 21 19 20 16 21 19 21 18 15 13
50 49 48 43 41 41 42 41 41 40 39 34 31 29 29 27 24 24 23 22 19 16 12 9 13 13 15 16 18 22 31 34 36 34 21 20 20 19 21 19 18 15 19
52 52 50 49 47 48 48 47 45 44 41 37 36 37 35 33 32 31 27 24 21 20 17 14 15 16 17 17 21 24 25 32 33 49 40 33 22 20 21 24 20 20 20
56 57 57 55 54 55 52 49 48 47 46 41 41 45 42 39 40 32 30 28 23 21 22 19 17 18 18 21 24 23 27 30 28 28 44 47 34 24 19 18 24 26 23
63 63 63 62 59 60 60 57 56 55 50 48 49 44 39 39 39 31 30 32 26 24 23 19 18 21 22 25 27 29 31 26 31 31 30 39 42 35 23 27 19 27 25
72 70 68 67 65 67 68 65 62 61 58 53 55 48 18 20 17 23 28 32 31 30 26 22 28 30 28 31 32 32 31 31 31 32 32 35 37 28 24 21 21 29 34
81 77 76 75 74 74 76 76 69 67 64 63 61 64 64 58 27 17 25 36 34 33 30 32 32 34 34 36 37 35 30 33 31 31 32 33 35 31 31 25 26 33 30
88 86 82 84 84 84 81 83 78 75 74 72 71 69 67 66 63 59 51 46 42 39 32 33 36 38 38 34 36 33 31 33 33 31 29 31 36 35 32 31 35 30 30
91 90 89 90 90 90 92 88 84 81 80 83 81 75 75 71 68 66 62 63 59 42 37 43 41 41 40 37 33 32 29 32 26 26 26 28 34 47 40 39 42 45 48
94 86 89 93 96 95 93 92 89 88 88 91 86 86 79 79 75 66 59 63 59 52 49 48 41 40 42 35 30 31 31 34 34 27 18 20 28 38 40 41 41 46 47
103 86 91 92 92 93 95 95 94 92 93 95 95 92 87 83 77 71 69 62 60 60 54 52 44 39 38 36 31 28 35 36 24 18 19 23 30 36 36 39 42 41 41
106 98 100 99 94 90 91 95 95 96 96 96 97 97 93 90 80 72 71 68 67 52 50 48 44 41 40 40 31 27 28 19 28 29 27 26 25 24 31 35 37 36 36
103 95 105 106 100 90 91 93 95 96 98 94 95 97 95 90 84 79 74 69 68 68 57 45 44 47 43 37 35 34 28 20 27 29 27 26 27 30 30 30 29 32 35
110 100 97 105 105 101 94 92 96 94 94 93 99 95 94 87 83 80 74 69 69 66 64 63 58 50 45 40 41 34 32 27 28 34 30 29 30 32 32 30 30 33 39
101 97 89 95 101 106 100 93 91 90 87 104 102 97 90 89 82 77 72 68 66 67 64 63 60 55 44 44 40 34 29 29 29 30 27 28 27 26 27 28 29 33 36
94 98 96 88 93 96 95 92 90 84 89 104 99 96 93 87 80 74 71 70 64 66 57 52 56 56 54 42 38 36 33 32 31 29 27 24 23 22 25 29 32 33 36
91 93 91 88 88 89 90 86 84 86 94 101 95 90 86 87 80 67 72 65 70 52 51 52 51 51 50 42 40 35 35 33 30 25 22 21 22 25 26 30 34 35 36
93 87 79 84 77 78 96 90 73 75 96 93 89 86 76 79 72 71 67 65 60 66 63 44 55 56 48 43 40 41 41 34 27 24 23 24 25 25 27 32 31 34 39
79 82 85 84 86 87 76 67 75 73 88 91 85 76 77 75 68 68 61 63 53 63 59 57 60 52 47 42 41 43 42 35 29 29 27 25 23 25 28 29 34 34 33
69 75 75 79 82 84 77 73 66 60 96 93 76 70 75 78 75 68 66 55 54 60 49 51 49 52 44 43 43 46 39 33 31 25 22 24 20 19 26 32 32 32 28
70 71 72 78 78 84 80 72 74 66 75 66 69 70 79 77 73 64 51 56 58 58 56 47 44 43 40 39 39 33 32 31 27 24 21 18 16 17 25 30 33 24 37
64 73 71 75 75 79 74 74 66 75 74 72 71 73 81 77 69 67 56 58 57 58 50 48 47 46 44 44 39 35 30 27 24 23 19 21 18 16 21 29 28 28 41
68 63 64 68 71 68 67 74 74 74 74 79 75 79 78 72 70 61 59 52 65 59 61 60 53 48 49 47 40 33 28 26 22 22 23 21 15 13 10 20 24 41 42
Wind_Direction_500mb
226 228 230 232 230 231 232 233 237 244 245 253 262 272 275 279 283 294 300 298 297 298 295 283 284 293 296 294 299 302 317 328 333 340 346 348 347 338 336 327 326 310 316
235 235 237 239 238 237 236 237 240 245 248 254 255 258 263 272 283 290 296 297 288 288 286 277 262 270 283 286 294 297 310 313 321 325 328 335 333 326 315 309 301 294 317
241 242 244 242 242 239 240 240 241 247 251 255 256 259 264 267 274 283 288 297 278 280 281 275 264 267 272 278 283 288 301 304 307 314 322 326 320 317 306 308 284 286 298
242 243 245 246 242 241 243 244 245 249 254 257 261 259 261 266 271 277 280 282 277 271 275 270 260 262 270 279 280 290 291 303 309 310 320 329 309 310 312 307 282 295 278
243 244 246 246 246 245 246 248 247 251 254 257 261 260 261 266 273 277 280 268 262 260 262 260 268 265 270 283 291 285 284 287 292 309 310 323 304 302 314 307 295 281 274
244 246 247 246 243 246 245 247 248 250 254 257 257 260 263 267 272 277 275 259 242 244 256 253 263 273 278 285 288 287 290 285 283 285 275 287 317 305 307 306 287 273 265
244 245 247 246 244 246 249 250 252 250 252 254 257 262 266 269 269 273 263 247 236 237 251 257 263 273 280 287 290 296 294 293 287 290 276 274 283 287 302 299 297 275 278
245 245 245 246 246 247 248 245 246 248 250 248 251 261 273 274 270 264 249 235 237 236 253 252 272 277 285 291 293 286 285 283 286 286 288 291 268 284 310 308 276 274 280
245 245 246 247 246 247 249 248 246 247 249 248 248 246 245 248 258 250 251 238 240 239 255 269 278 288 280 280 284 290 288 281 277 282 279 270 279 278 290 300 284 282 276
247 246 247 247 247 247 248 250 247 247 248 248 246 245 247 253 264 271 246 234 240 241 251 262 273 282 272 268 278 283 284 281 278 273 272 271 275 272 287 298 283 286 272
251 250 250 250 249 249 250 251 249 247 249 249 249 250 252 251 253 255 271 259 251 262 269 275 273 278 279 275 275 275 276 275 274 271 260 245 246 232 261 274 270 279 269
255 253 253 251 251 251 252 252 253 251 251 252 253 251 251 250 252 248 249 262 269 274 273 271 274 274 272 276 281 281 278 288 281 272 254 240 234 247 259 268 269 266 263
256 257 255 254 252 253 253 254 254 253 252 251 251 254 252 253 255 257 258 262 266 272 273 270 275 266 266 269 271 278 292 301 291 281 257 248 242 246 254 268 279 274 265
260 261 261 260 258 258 256 256 255 256 255 254 253 253 255 255 253 255 254 252 258 264 265 268 269 269 261 254 266 277 290 308 287 268 270 264 250 255 266 273 272 274 269
263 263 262 262 261 259 259 258 256 255 257 256 256 255 254 256 255 255 253 252 254 250 257 262 258 265 251 257 260 259 269 289 283 278 279 280 283 264 260 262 266 269 274
266 267 265 265 266 262 261 259 258 256 256 257 259 258 256 253 254 254 252 252 252 254 249 257 251 249 242 243 249 257 260 261 274 272 271 276 278 280 279 273 265 265 267
265 266 267 268 269 269 266 263 258 257 258 259 257 256 254 251 250 252 251 250 250 250 251 250 247 257 241 239 244 251 253 255 259 264 265 272 276 280 283 278 274 266 265
266 267 266 269 269 268 266 264 261 261 258 259 256 255 253 247 247 248 249 249 248 248 248 244 256 230 244 228 242 238 250 251 245 251 257 267 271 278 281 276 278 275 275
267 267 266 267 268 266 267 266 265 260 265 260 254 255 255 246 246 244 247 248 248 245 238 248 245 248 238 229 233 245 240 236 233 243 256 261 275 274 274 275 274 278 282
266 265 268 271 267 267 269 267 266 266 264 257 256 257 252 249 246 245 248 244 244 237 238 233 245 235 217 234 225 231 226 223 226 240 250 254 262 270 271 277 282 286 289
263 262 262 264 266 268 267 262 267 266 261 257 257 258 255 251 245 243 241 241 239 244 224 243 233 229 241 222 234 228 214 214 223 239 239 247 263 272 278 281 287 289 294
265 263 262 260 262 261 258 262 262 265 261 256 253 256 252 248 242 242 238 247 237 237 233 241 230 242 226 227 227 216 211 211 215 230 234 255 268 271 278 282 290 292 291
272 263 259 260 258 260 261 260 256 261 261 256 252 252 250 245 237 232 230 223 226 225 226 231 240 233 227 230 223 211 211 218 226 230 238 253 262 273 275 284 289 288 300
275 265 262 255 255 257 257 254 257 256 258 254 256 256 250 241 237 230 228 222 215 218 228 235 221 224 223 223 211 210 214 219 231 238 240 258 262 255 276 288 288 283 300
273 272 264 259 254 254 255 252 249 251 251 252 252 247 246 239 233 221 229 219 226 221 216 214 208 203 202 200 201 207 215 226 229 239 242 247 249 255 277 280 271 287 298
280 268 267 263 259 253 250 250 248 238 248 250 244 241 235 234 231 222 216 231 224 220 213 201 196 194 192 194 201 213 223 229 230 236 230 238 254 273 276 276 250 288 298
Wind_Speed_850mb
34 30 28 29 28 28 27 26 24 24 20 18 15 13 14 15 16 17 17 18 17 17 16 14 12 12 14 15 14 15 16 17 18 18 19 19 17 15 13 13 11 11 9
36 33 31 33 31 31 31 29 28 28 24 21 17 18 17 17 16 16 17 18 19 16 15 15 12 14 15 14 18 18 18 17 16 16 18 19 17 18 14 12 12 13 10
41 38 37 38 35 33 34 34 33 32 29 24 22 22 20 18 17 16 16 16 15 15 14 13 12 13 14 14 20 17 18 18 17 17 18 20 17 18 17 19 15 14 10
46 43 43 41 36 37 37 37 36 36 34 30 27 24 24 23 21 20 21 20 17 14 12 12 13 12 13 14 16 24 28 27 26 21 19 20 16 21 19 21 18 15 13
50 49 48 43 41 41 42 41 41 40 39 34 31 29 29 27 24 24 23 22 19 16 12 9 13 13 15 16 18 22 31 34 36 34 21 20 20 19 21 19 18 15 19
52 52 50 49 47 48 48 47 45 44 41 37 36 37 35 33 32 31 27 24 21 20 17 14 15 16 17 17 21 24 25 32 33 49 40 33 22 20 21 24 20 20 20
56 57 57 55 54 55 52 49 48 47 46 41 41 45 42 39 40 32 30 28 23 21 22 19 17 18 18 21 24 23 27 30 28 28 44 47 34 24 19 18 24 26 23
63 63 63 62 59 60 60 57 56 55 50 48 49 44 39 39 39 31 30 32 26 24 23 19 18 21 22 25 27 29 31 26 31 31 30 39 42 35 23 27 19 27 25
72 70 68 67 65 67 68 65 62 61 58 53 55 48 18 20 17 23 28 32 31 30 26 22 28 30 28 31 32 32 31 31 31 32 32 35 37 28 24 21 21 29 34
81 77 76 75 74 74 76 76 69 67 64 63 61 64 64 58 27 17 25 36 34 33 30 32 32 34 34 36 37 35 30 33 31 31 32 33 35 31 31 25 26 33 30
88 86 82 84 84 84 81 83 78 75 74 72 71 69 67 66 63 59 51 46 42 39 32 33 36 38 38 34 36 33 31 33 33 31 29 31 36 35 32 31 35 30 30
91 90 89 90 90 90 92 88 84 81 80 83 81 75 75 71 68 66 62 63 59 42 37 43 41 41 40 37 33 32 29 32 26 26 26 28 34 47 40 39 42 45 48
94 86 89 93 96 95 93 92 89 88 88 91 86 86 79 79 75 66 59 63 59 52 49 48 41 40 42 35 30 31 31 34 34 27 18 20 28 38 40 41 41 46 47
103 86 91 92 92 93 95 95 94 92 93 95 95 92 87 83 77 71 69 62 60 60 54 52 44 39 38 36 31 28 35 36 24 18 19 23 30 36 36 39 42 41 41
106 98 100 99 94 90 91 95 95 96 96 96 97 97 93 90 80 72 71 68 67 52 50 48 44 41 40 40 31 27 28 19 28 29 27 26 25 24 31 35 37 36 36
103 95 105 106 100 90 91 93 95 96 98 94 95 97 95 90 84 79 74 69 68 68 57 45 44 47 43 37 35 34 28 20 27 29 27 26 27 30 30 30 29 32 35
110 100 97 105 105 101 94 92 96 94 94 93 99 95 94 87 83 80 74 69 69 66 64 63 58 50 45 40 41 34 32 27 28 34 30 29 30 32 32 30 30 33 39
101 97 89 95 101 106 100 93 91 90 87 104 102 97 90 89 82 77 72 68 66 67 64 63 60 55 44 44 40 34 29 29 29 30 27 28 27 26 27 28 29 33 36
94 98 96 88 93 96 95 92 90 84 89 104 99 96 93 87 80 74 71 70 64 66 57 52 56 56 54 42 38 36 33 32 31 29 27 24 23 22 25 29 32 33 36
91 93 91 88 88 89 90 86 84 86 94 101 95 90 86 87 80 67 72 65 70 52 51 52 51 51 50 42 40 35 35 33 30 25 22 21 22 25 26 30 34 35 36
93 87 79 84 77 78 96 90 73 75 96 93 89 86 76 79 72 71 67 65 60 66 63 44 55 56 48 43 40 41 41 34 27 24 23 24 25 25 27 32 31 34 39
79 82 85 84 86 87 76 67 75 73 88 91 85 76 77 75 68 68 61 63 53 63 59 57 60 52 47 42 41 43 42 35 29 29 27 25 23 25 28 29 34 34 33
69 75 75 79 82 84 77 73 66 60 96 93 76 70 75 78 75 68 66 55 54 60 49 51 49 52 44 43 43 46 39 33 31 25 22 24 20 19 26 32 32 32 28
70 71 72 78 78 84 80 72 74 66 75 66 69 70 79 77 73 64 51 56 58 58 56 47 44 43 40 39 39 33 32 31 27 24 21 18 16 17 25 30 33 24 37
64 73 71 75 75 79 74 74 66 75 74 72 71 73 81 77 69 67 56 58 57 58 50 48 47 46 44 44 39 35 30 27 24 23 19 21 18 16 21 29 28 28 41
68 63 64 68 71 68 67 74 74 74 74 79 75 79 78 72 70 61 59 52 65 59 61 60 53 48 49 47 40 33 28 26 22 22 23 21 15 13 10 20 24 41 42
Wind_Direction_850mb
226 228 230 232 230 231 232 233 237 244 245 253 262 272 275 279 283 294 300 298 297 298 295 283 284 293 296 294 299 302 317 328 333 340 346 348 347 338 336 327 326 310 316
235 235 237 239 238 237 236 237 240 245 248 254 255 258 263 272 283 290 296 297 288 288 286 277 262 270 283 286 294 297 310 313 321 325 328 335 333 326 315 309 301 294 317
241 242 244 242 242 239 240 240 241 247 251 255 256 259 264 267 274 283 288 297 278 280 281 275 264 267 272 278 283 288 301 304 307 314 322 326 320 317 306 308 284 286 298
242 243 245 246 242 241 243 244 245 249 254 257 261 259 261 266 271 277 280 282 277 271 275 270 260 262 270 279 280 290 291 303 309 310 320 329 309 310 312 307 282 295 278
243 244 246 246 246 245 246 248 247 251 254 257 261 260 261 266 273 277 280 268 262 260 262 260 268 265 270 283 291 285 284 287 292 309 310 323 304 302 314 307 295 281 274
244 246 247 246 243 246 245 247 248 250 254 257 257 260 263 267 272 277 275 259 242 244 256 253 263 273 278 285 288 287 290 285 283 285 275 287 317 305 307 306 287 273 265
244 245 247 246 244 246 249 250 252 250 252 254 257 262 266 269 269 273 263 247 236 237 251 257 263 273 280 287 290 296 294 293 287 290 276 274 283 287 302 299 297 275 278
245 245 245 246 246 247 248 245 246 248 250 248 251 261 273 274 270 264 249 235 237 236 253 252 272 277 285 291 293 286 285 283 286 286 288 291 268 284 310 308 276 274 280
245 245 246 247 246 247 249 248 246 247 249 248 248 246 245 248 258 250 251 238 240 239 255 269 278 288 280 280 284 290 288 281 277 282 279 270 279 278 290 300 284 282 276
247 246 247 247 247 247 248 250 247 247 248 248 246 245 247 253 264 271 246 234 240 241 251 262 273 282 272 268 278 283 284 281 278 273 272 271 275 272 287 298 283 286 272
251 250 250 250 249 249 250 251 249 247 249 249 249 250 252 251 253 255 271 259 251 262 269 275 273 278 279 275 275 275 276 275 274 271 260 245 246 232 261 274 270 279 269
255 253 253 251 251 251 252 252 253 251 251 252 253 251 251 250 252 248 249 262 269 274 273 271 274 274 272 276 281 281 278 288 281 272 254 240 234 247 259 268 269 266 263
256 257 255 254 252 253 253 254 254 253 252 251 251 254 252 253 255 257 258 262 266 272 273 270 275 266 266 269 271 278 292 301 291 281 257 248 242 246 254 268 279 274 265
260 261 261 260 258 258 256 256 255 256 255 254 253 253 255 255 253 255 254 252 258 264 265 268 269 269 261 254 266 277 290 308 287 268 270 264 250 255 266 273 272 274 269
263 263 262 262 261 259 259 258 256 255 257 256 256 255 254 256 255 255 253 252 254 250 257 262 258 265 251 257 260 259 269 289 283 278 279 280 283 264 260 262 266 269 274
266 267 265 265 266 262 261 259 258 256 256 257 259 258 256 253 254 254 252 252 252 254 249 257 251 249 242 243 249 257 260 261 274 272 271 276 278 280 279 273 265 265 267
265 266 267 268 269 269 266 263 258 257 258 259 257 256 254 251 250 252 251 250 250 250 251 250 247 257 241 239 244 251 253 255 259 264 265 272 276 280 283 278 274 266 265
266 267 266 269 269 268 266 264 261 261 258 259 256 255 253 247 247 248 249 249 248 248 248 244 256 230 244 228 242 238 250 251 245 251 257 267 271 278 281 276 278 275 275
267 267 266 267 268 266 267 266 265 260 265 260 254 255 255 246 246 244 247 248 248 245 238 248 245 248 238 229 233 245 240 236 233 243 256 261 275 274 274 275 274 278 282
266 265 268 271 267 267 269 267 266 266 264 257 256 257 252 249 246 245 248 244 244 237 238 233 245 235 217 234 225 231 226 223 226 240 250 254 262 270 271 277 282 286 289
263 262 262 264 266 268 267 262 267 266 261 257 257 258 255 251 245 243 241 241 239 244 224 243 233 229 241 222 234 228 214 214 223 239 239 247 263 272 278 281 287 289 294
265 263 262 260 262 261 258 262 262 265 261 256 253 256 252 248 242 242 238 247 237 237 233 241 230 242 226 227 227 216 211 211 215 230 234 255 268 271 278 282 290 292 291
272 263 259 260 258 260 261 260 256 261 261 256 252 252 250 245 237 232 230 223 226 225 226 231 240 233 227 230 223 211 211 218 226 230 238 253 262 273 275 284 289 288 300
275 265 262 255 255 257 257 254 257 256 258 254 256 256 250 241 237 230 228 222 215 218 228 235 221 224 223 223 211 210 214 219 231 238 240 258 262 255 276 288 288 283 300
273 272 264 259 254 254 255 252 249 251 251 252 252 247 246 239 233 221 229 219 226 221 216 214 208 203 202 200 201 207 215 226 229 239 242 247 249 255 277 280 271 287 298
280 268 267 263 259 253 250 250 248 238 248 250 244 241 235 234 231 222 216 231 224 220 213 201 196 194 192 194 201 213 223 229 230 236 230 238 254 273 276 276 250 288 298